﻿測定場所 (Monitoring sites),日付 (Measurement date),時間 (Measurement time),線量率 最大値 (max) μGy/h,線量率 最小値 (min) μGy/h,線量率 平均値 (average) μGy/h,
江戸川 (Edogawa),2012-04-08,23:01～24:00,0.128,0.114,0.122,
江戸川 (Edogawa),2012-04-08,22:01～23:00,0.129,0.116,0.122,
江戸川 (Edogawa),2012-04-08,21:01～22:00,0.130,0.118,0.123,
江戸川 (Edogawa),2012-04-08,20:01～21:00,0.129,0.118,0.123,
江戸川 (Edogawa),2012-04-08,19:01～20:00,0.130,0.117,0.123,
江戸川 (Edogawa),2012-04-08,18:01～19:00,0.135,0.117,0.124,
江戸川 (Edogawa),2012-04-08,17:01～18:00,0.130,0.114,0.123,
江戸川 (Edogawa),2012-04-08,16:01～17:00,0.131,0.115,0.123,
江戸川 (Edogawa),2012-04-08,15:01～16:00,0.131,0.115,0.124,
江戸川 (Edogawa),2012-04-08,14:01～15:00,0.130,0.115,0.124,
江戸川 (Edogawa),2012-04-08,13:01～14:00,0.132,0.118,0.124,
江戸川 (Edogawa),2012-04-08,12:01～13:00,0.131,0.119,0.124,
江戸川 (Edogawa),2012-04-08,11:01～12:00,0.135,0.119,0.125,
江戸川 (Edogawa),2012-04-08,10:01～11:00,0.130,0.116,0.124,
江戸川 (Edogawa),2012-04-08,09:01～10:00,0.132,0.117,0.124,
江戸川 (Edogawa),2012-04-08,08:01～09:00,0.130,0.116,0.124,
江戸川 (Edogawa),2012-04-08,07:01～08:00,0.130,0.115,0.122,
江戸川 (Edogawa),2012-04-08,06:01～07:00,0.129,0.115,0.122,
江戸川 (Edogawa),2012-04-08,05:01～06:00,0.128,0.116,0.122,
江戸川 (Edogawa),2012-04-08,04:01～05:00,0.131,0.116,0.122,
江戸川 (Edogawa),2012-04-08,03:01～04:00,0.129,0.116,0.122,
江戸川 (Edogawa),2012-04-08,02:01～03:00,0.129,0.115,0.122,
江戸川 (Edogawa),2012-04-08,01:01～02:00,0.131,0.116,0.122,
江戸川 (Edogawa),2012-04-08,00:01～01:00,0.132,0.116,0.122,
江戸川 (Edogawa),2012-04-07,23:01～24:00,0.131,0.117,0.122,
江戸川 (Edogawa),2012-04-07,22:01～23:00,0.129,0.117,0.123,
江戸川 (Edogawa),2012-04-07,21:01～22:00,0.129,0.117,0.122,
江戸川 (Edogawa),2012-04-07,20:01～21:00,0.129,0.117,0.123,
江戸川 (Edogawa),2012-04-07,19:01～20:00,0.131,0.119,0.123,
江戸川 (Edogawa),2012-04-07,18:01～19:00,0.130,0.114,0.123,
江戸川 (Edogawa),2012-04-07,17:01～18:00,0.131,0.118,0.123,
江戸川 (Edogawa),2012-04-07,16:01～17:00,0.131,0.118,0.123,
江戸川 (Edogawa),2012-04-07,15:01～16:00,0.130,0.118,0.123,
江戸川 (Edogawa),2012-04-07,14:01～15:00,0.131,0.116,0.124,
江戸川 (Edogawa),2012-04-07,13:01～14:00,0.132,0.118,0.124,
江戸川 (Edogawa),2012-04-07,12:01～13:00,0.132,0.118,0.124,
江戸川 (Edogawa),2012-04-07,11:01～12:00,0.129,0.118,0.124,
江戸川 (Edogawa),2012-04-07,10:01～11:00,0.131,0.118,0.124,
江戸川 (Edogawa),2012-04-07,09:01～10:00,0.130,0.117,0.123,
江戸川 (Edogawa),2012-04-07,08:01～09:00,0.130,0.117,0.122,
江戸川 (Edogawa),2012-04-07,07:01～08:00,0.130,0.116,0.123,
江戸川 (Edogawa),2012-04-07,06:01～07:00,0.127,0.115,0.122,
江戸川 (Edogawa),2012-04-07,05:01～06:00,0.127,0.115,0.122,
江戸川 (Edogawa),2012-04-07,04:01～05:00,0.128,0.117,0.122,
江戸川 (Edogawa),2012-04-07,03:01～04:00,0.131,0.116,0.122,
江戸川 (Edogawa),2012-04-07,02:01～03:00,0.128,0.116,0.122,
江戸川 (Edogawa),2012-04-07,01:01～02:00,0.128,0.114,0.122,
江戸川 (Edogawa),2012-04-07,00:01～01:00,0.129,0.116,0.123,
江戸川 (Edogawa),2012-04-06,23:01～24:00,0.131,0.117,0.123,
江戸川 (Edogawa),2012-04-06,22:01～23:00,0.131,0.117,0.124,
江戸川 (Edogawa),2012-04-06,21:01～22:00,0.135,0.116,0.125,
江戸川 (Edogawa),2012-04-06,20:01～21:00,0.132,0.117,0.125,
江戸川 (Edogawa),2012-04-06,19:01～20:00,0.130,0.112,0.123,
江戸川 (Edogawa),2012-04-06,18:01～19:00,0.130,0.115,0.122,
江戸川 (Edogawa),2012-04-06,17:01～18:00,0.132,0.116,0.123,
江戸川 (Edogawa),2012-04-06,16:01～17:00,0.131,0.117,0.124,
江戸川 (Edogawa),2012-04-06,15:01～16:00,0.130,0.117,0.124,
江戸川 (Edogawa),2012-04-06,14:01～15:00,0.132,0.117,0.124,
江戸川 (Edogawa),2012-04-06,13:01～14:00,0.131,0.116,0.124,
江戸川 (Edogawa),2012-04-06,12:01～13:00,0.131,0.118,0.124,
江戸川 (Edogawa),2012-04-06,11:01～12:00,0.130,0.117,0.124,
江戸川 (Edogawa),2012-04-06,10:01～11:00,0.130,0.114,0.122,
江戸川 (Edogawa),2012-04-06,09:01～10:00,0.130,0.115,0.123,
江戸川 (Edogawa),2012-04-06,08:01～09:00,0.129,0.111,0.122,
江戸川 (Edogawa),2012-04-06,07:01～08:00,0.128,0.116,0.121,
江戸川 (Edogawa),2012-04-06,06:01～07:00,0.127,0.115,0.122,
江戸川 (Edogawa),2012-04-06,05:01～06:00,0.128,0.115,0.121,
江戸川 (Edogawa),2012-04-06,04:01～05:00,0.128,0.116,0.122,
江戸川 (Edogawa),2012-04-06,03:01～04:00,0.128,0.114,0.122,
江戸川 (Edogawa),2012-04-06,02:01～03:00,0.136,0.120,0.129,
江戸川 (Edogawa),2012-04-06,01:01～02:00,0.143,0.124,0.132,
江戸川 (Edogawa),2012-04-06,00:01～01:00,0.134,0.119,0.125,
江戸川 (Edogawa),2012-04-05,23:01～24:00,0.128,0.117,0.123,
江戸川 (Edogawa),2012-04-05,22:01～23:00,0.129,0.115,0.123,
江戸川 (Edogawa),2012-04-05,21:01～22:00,0.129,0.118,0.123,
江戸川 (Edogawa),2012-04-05,20:01～21:00,0.129,0.116,0.123,
江戸川 (Edogawa),2012-04-05,19:01～20:00,0.128,0.116,0.123,
江戸川 (Edogawa),2012-04-05,18:01～19:00,0.131,0.118,0.124,
江戸川 (Edogawa),2012-04-05,17:01～18:00,0.131,0.119,0.124,
江戸川 (Edogawa),2012-04-05,16:01～17:00,0.135,0.118,0.125,
江戸川 (Edogawa),2012-04-05,15:01～16:00,0.133,0.118,0.125,
江戸川 (Edogawa),2012-04-05,14:01～15:00,0.132,0.120,0.126,
江戸川 (Edogawa),2012-04-05,13:01～14:00,0.131,0.120,0.126,
江戸川 (Edogawa),2012-04-05,12:01～13:00,0.133,0.118,0.125,
江戸川 (Edogawa),2012-04-05,11:01～12:00,0.133,0.117,0.124,
江戸川 (Edogawa),2012-04-05,10:01～11:00,0.130,0.118,0.124,
江戸川 (Edogawa),2012-04-05,09:01～10:00,0.133,0.117,0.123,
江戸川 (Edogawa),2012-04-05,08:01～09:00,0.132,0.118,0.124,
江戸川 (Edogawa),2012-04-05,07:01～08:00,0.129,0.118,0.123,
江戸川 (Edogawa),2012-04-05,06:01～07:00,0.128,0.113,0.122,
江戸川 (Edogawa),2012-04-05,05:01～06:00,0.128,0.114,0.122,
江戸川 (Edogawa),2012-04-05,04:01～05:00,0.131,0.117,0.122,
江戸川 (Edogawa),2012-04-05,03:01～04:00,0.128,0.115,0.122,
江戸川 (Edogawa),2012-04-05,02:01～03:00,0.130,0.116,0.122,
江戸川 (Edogawa),2012-04-05,01:01～02:00,0.128,0.114,0.122,
江戸川 (Edogawa),2012-04-05,00:01～01:00,0.127,0.116,0.121,
江戸川 (Edogawa),2012-04-04,23:01～24:00,0.129,0.116,0.122,
江戸川 (Edogawa),2012-04-04,22:01～23:00,0.127,0.115,0.121,
江戸川 (Edogawa),2012-04-04,21:01～22:00,0.128,0.118,0.122,
江戸川 (Edogawa),2012-04-04,20:01～21:00,0.127,0.115,0.122,
江戸川 (Edogawa),2012-04-04,19:01～20:00,0.128,0.116,0.122,
江戸川 (Edogawa),2012-04-04,18:01～19:00,0.127,0.116,0.122,
江戸川 (Edogawa),2012-04-04,17:01～18:00,0.129,0.117,0.122,
江戸川 (Edogawa),2012-04-04,16:01～17:00,0.129,0.115,0.123,
江戸川 (Edogawa),2012-04-04,15:01～16:00,0.131,0.117,0.124,
江戸川 (Edogawa),2012-04-04,14:01～15:00,0.133,0.118,0.123,
江戸川 (Edogawa),2012-04-04,13:01～14:00,0.131,0.117,0.124,
江戸川 (Edogawa),2012-04-04,12:01～13:00,0.132,0.117,0.124,
江戸川 (Edogawa),2012-04-04,11:01～12:00,0.131,0.118,0.124,
江戸川 (Edogawa),2012-04-04,10:01～11:00,0.130,0.116,0.122,
江戸川 (Edogawa),2012-04-04,09:01～10:00,0.131,0.117,0.122,
江戸川 (Edogawa),2012-04-04,08:01～09:00,0.131,0.115,0.122,
江戸川 (Edogawa),2012-04-04,07:01～08:00,0.127,0.115,0.122,
江戸川 (Edogawa),2012-04-04,06:01～07:00,0.126,0.113,0.121,
江戸川 (Edogawa),2012-04-04,05:01～06:00,0.129,0.113,0.122,
江戸川 (Edogawa),2012-04-04,04:01～05:00,0.128,0.115,0.120,
江戸川 (Edogawa),2012-04-04,03:01～04:00,0.133,0.113,0.120,
江戸川 (Edogawa),2012-04-04,02:01～03:00,0.127,0.114,0.120,
江戸川 (Edogawa),2012-04-04,01:01～02:00,0.126,0.115,0.121,
江戸川 (Edogawa),2012-04-04,00:01～01:00,0.127,0.115,0.121,
江戸川 (Edogawa),2012-04-03,23:01～24:00,0.128,0.114,0.121,
江戸川 (Edogawa),2012-04-03,22:01～23:00,0.131,0.115,0.122,
江戸川 (Edogawa),2012-04-03,21:01～22:00,0.137,0.116,0.126,
江戸川 (Edogawa),2012-04-03,20:01～21:00,0.138,0.119,0.130,
江戸川 (Edogawa),2012-04-03,19:01～20:00,0.135,0.116,0.126,
江戸川 (Edogawa),2012-04-03,18:01～19:00,0.139,0.122,0.129,
江戸川 (Edogawa),2012-04-03,17:01～18:00,0.134,0.121,0.128,
江戸川 (Edogawa),2012-04-03,16:01～17:00,0.142,0.123,0.131,
江戸川 (Edogawa),2012-04-03,15:01～16:00,0.139,0.123,0.129,
江戸川 (Edogawa),2012-04-03,14:01～15:00,0.132,0.116,0.124,
江戸川 (Edogawa),2012-04-03,13:01～14:00,0.128,0.118,0.122,
江戸川 (Edogawa),2012-04-03,12:01～13:00,0.128,0.112,0.122,
江戸川 (Edogawa),2012-04-03,11:01～12:00,0.130,0.113,0.122,
江戸川 (Edogawa),2012-04-03,10:01～11:00,0.131,0.116,0.122,
江戸川 (Edogawa),2012-04-03,09:01～10:00,0.131,0.116,0.123,
江戸川 (Edogawa),2012-04-03,08:01～09:00,0.129,0.116,0.123,
江戸川 (Edogawa),2012-04-03,07:01～08:00,0.128,0.115,0.122,
江戸川 (Edogawa),2012-04-03,06:01～07:00,0.129,0.117,0.123,
江戸川 (Edogawa),2012-04-03,05:01～06:00,0.130,0.115,0.122,
江戸川 (Edogawa),2012-04-03,04:01～05:00,0.131,0.116,0.122,
江戸川 (Edogawa),2012-04-03,03:01～04:00,0.127,0.114,0.121,
江戸川 (Edogawa),2012-04-03,02:01～03:00,0.133,0.113,0.123,
江戸川 (Edogawa),2012-04-03,01:01～02:00,0.129,0.116,0.122,
江戸川 (Edogawa),2012-04-03,00:01～01:00,0.131,0.116,0.122,
江戸川 (Edogawa),2012-04-02,23:01～24:00,0.130,0.115,0.123,
江戸川 (Edogawa),2012-04-02,22:01～23:00,0.129,0.113,0.122,
江戸川 (Edogawa),2012-04-02,21:01～22:00,0.129,0.117,0.123,
江戸川 (Edogawa),2012-04-02,20:01～21:00,0.130,0.116,0.124,
江戸川 (Edogawa),2012-04-02,19:01～20:00,0.130,0.117,0.123,
江戸川 (Edogawa),2012-04-02,18:01～19:00,0.130,0.117,0.124,
江戸川 (Edogawa),2012-04-02,17:01～18:00,0.131,0.113,0.123,
江戸川 (Edogawa),2012-04-02,16:01～17:00,0.135,0.119,0.124,
江戸川 (Edogawa),2012-04-02,15:01～16:00,0.134,0.119,0.124,
江戸川 (Edogawa),2012-04-02,14:01～15:00,0.130,0.118,0.124,
江戸川 (Edogawa),2012-04-02,13:01～14:00,0.130,0.117,0.124,
江戸川 (Edogawa),2012-04-02,12:01～13:00,0.130,0.120,0.124,
江戸川 (Edogawa),2012-04-02,11:01～12:00,0.130,0.118,0.124,
江戸川 (Edogawa),2012-04-02,10:01～11:00,0.132,0.116,0.124,
江戸川 (Edogawa),2012-04-02,09:01～10:00,0.130,0.119,0.124,
江戸川 (Edogawa),2012-04-02,08:01～09:00,0.132,0.116,0.123,
江戸川 (Edogawa),2012-04-02,07:01～08:00,0.129,0.115,0.122,
江戸川 (Edogawa),2012-04-02,06:01～07:00,0.128,0.114,0.122,
江戸川 (Edogawa),2012-04-02,05:01～06:00,0.127,0.113,0.120,
江戸川 (Edogawa),2012-04-02,04:01～05:00,0.128,0.116,0.121,
江戸川 (Edogawa),2012-04-02,03:01～04:00,0.127,0.115,0.122,
江戸川 (Edogawa),2012-04-02,02:01～03:00,0.127,0.116,0.122,
江戸川 (Edogawa),2012-04-02,01:01～02:00,0.131,0.116,0.122,
江戸川 (Edogawa),2012-04-02,00:01～01:00,0.127,0.115,0.121,
